weather.gov     
National Weather Service

Regional Weather Roundup
NWS Homepage
This page is being discontinued on March 12, 2014.
The same data is available at this site. Please update your bookmarks.
Thank you, and we apologize for the inconvenience.
Please send an email to SR-SRH.Webmaster@noaa.gov with any concerns.


Current Version
Previous Version:    01  02  03  04  05  06  07  08  09  10  11  12  13  14  15  16  17  18  19  20  21  22  23  24  25  26  27  28  29  30  
   31  32  33  34  35  36  37  38  39  40  41  42  43  44  45  46  47  48  49  50  51  52  53  54  
[Printable]
116
ASUS43 KGRB 190159
RWRGRB

NORTH-CENTRAL AND NORTHEAST WISCONSIN REGIONAL WEATHER ROUNDUP
NATIONAL WEATHER SERVICE GREEN BAY WI
900 PM CDT FRI APR 18 2014

WIZ005-009-010>012-018-019-190300-
NORTH CENTRAL WISCONSIN

CITY           SKY/WX    TMP DP  RH WIND       PRES   REMARKS
IRONWOOD       CLEAR     30  21  69 E6        30.32S
MANITOWISH WTR NOT AVBL
ARBOR VITAE    NOT AVBL
EAGLE RIVER    NOT AVBL
LAND O LAKES   NOT AVBL
RHINELANDER    CLEAR     34  20  56 NE6       30.35S
PHILLIPS       NOT AVBL
ANTIGO         NOT AVBL
TOMAHAWK       NOT AVBL
MERRILL        NOT AVBL
$$

WIZ013-073-190300-
NORTHEAST WISCONSIN

CITY           SKY/WX    TMP DP  RH WIND       PRES   REMARKS
IRON MOUNTAIN  CLEAR     30  22  72 CALM      30.38R
MARINETTE      CLEAR     32  25  74 CALM      30.42R
$$

WIZ017-030-035>037-045-190300-
CENTRAL WISCONSIN

CITY           SKY/WX    TMP DP  RH WIND       PRES   REMARKS
MEDFORD        NOT AVBL
WAUSAU         CLEAR     38  21  50 E7        30.32R
MOSINEE        CLEAR     37  21  52 E9        30.33F
MARSHFIELD     CLEAR     41  24  51 E7        30.31R
WISC RAPIDS    CLEAR     43  23  45 E6        30.33S
STEVENS POINT  NOT AVBL
WAUPACA        NOT AVBL
SHAWANO        NOT AVBL
CLINTONVILLE   NOT AVBL
$$

WIZ038-039-048-051-190300-
FOX VALLEY

CITY           SKY/WX    TMP DP  RH WIND       PRES   REMARKS
NWS GREEN BAY  CLEAR     37  29  72 E7        30.40R
APPLETON       PTCLDY    39  30  70 E9        30.38R
OSHKOSH        CLEAR     38  29  70 E10       30.37R
FOND DU LAC    CLEAR     38  27  64 E8        30.38R
$$

WIZ022-050-052-190300-
EAST CENTRAL WISCONSIN

CITY           SKY/WX    TMP DP  RH WIND       PRES   REMARKS
STURGEON BAY   CLEAR     34  25  69 CALM      30.42R
MANITOWOC      NOT AVBL
SHEBOYGAN      CLEAR     32  26  78 NE5       30.40R
$$

LMZ563-521-522-541>543-190300-
LAKESHORE

STATION/POSITION TIME  TEMP    WIND        PRES    VSBY  WAVE
                       AIR SEA DIR/SP/G                  HT/PER
                 (UTC) (F)     (DEG/KT/KT) (MB)    (MI)  (FT/S)
SHEBOYGAN LKSHOR 0100   36      50/  6/  7 1030.0S
KEWAUNEE LKSHORE 0100   34      60/  2/  3 1030.3R
TWO RIVERS CG    0100   35 43                N/A       6   1
NORTHPORT PIER   0100   32     140/  3/  3 1030.1R
SISTER BAY LKSHO 0100   35        CALM       N/A
MENOMINEE LKSHOR 0100   31      30/  1/  2 1030.6R
$$




U.S. Dept. of Commerce
NOAA National Weather Service
1325 East West Highway
Silver Spring, MD 20910
E-mail: w-nws.webmaster@noaa.gov
Page last modified: May 16, 2007
NATIONAL WEATHER SERVICE: for Safety, for Work, for Fun - FOR LIFE